Tracking 19576 objects as of 17-Feb-2019
HD Live streaming from Space Station
objects crossing your sky now

COSMOS 715

Track COSMOS 715 now!
10-day predictions
COSMOS 715 is classified as:


NORAD ID: 7682
Int'l Code: 1975-016E
Perigee: 1,477.2 km
Apogee: 1,510.5 km
Inclination: 74.0 °
Period: 115.7 minutes
Semi major axis: 7864 km
RCS: 0.728 m2 (medium)
Launch date: February 28, 1975
Source: Commonwealth of Independent States (former USSR) (CIS)
Launch site: PLESETSK MISSILE AND SPACE COMPLEX (PKMTR)
aabbcc
Your satellite tracking list
Your tracking list is empty




NASA's NSSDC Master Catalog

Two Line Element Set (TLE):
1  7682U 75016E   19047.57780884 -.00000005 +00000-0 +75915-4 0  9997
2  7682 074.0018 096.3490 0021138 097.6626 012.1318 12.44705211568706
Source of the keplerian elements: AFSPC